Temperature
13 13 13 13 13 13 13 13 12 12 12 12 12 11 11 11 11 11 11 11 11 11 10 10 10 10 10 10 10 10 10 10 10 9 9 9 9 9 9 9 9 10 10
13 13 13 13 13 13 12 12 12 12 11 11 11 11 11 11 10 10 10 10 10 10 10 10 10 10 10 9 9 9 9 9 9 9 9 9 9 9 9 9 9 9 9
13 13 13 12 12 12 12 12 11 11 11 11 11 11 11 10 10 10 10 10 10 10 10 9 9 9 9 9 8 8 8 8 8 8 8 8 8 8 8 8 9 9 9
12 12 12 12 12 12 12 11 11 11 11 11 11 11 10 10 10 9 9 9 9 9 9 9 9 8 8 8 8 7 7 7 8 8 8 8 8 8 8 8 8 8 8
12 12 12 12 12 11 11 11 11 10 10 10 10 10 10 10 9 9 9 9 9 8 8 8 8 8 8 7 7 7 7 7 7 7 7 7 7 7 8 8 8 8 8
12 12 12 11 11 11 11 11 10 10 10 10 10 10 10 9 9 9 9 8 8 8 8 8 8 8 7 7 7 7 7 7 6 7 7 7 7 7 7 7 7 7 7
11 11 11 11 11 11 10 10 10 10 9 9 9 9 9 9 8 8 8 8 8 8 7 7 7 7 7 6 6 6 6 6 6 6 6 6 6 7 7 7 7 7 7
11 11 11 11 10 10 10 10 10 9 9 9 8 8 7 8 8 8 8 8 7 7 7 7 6 6 6 6 6 6 6 6 6 6 6 6 6 6 6 6 6 6 6
11 10 10 10 10 10 10 10 9 9 9 8 8 7 7 7 7 7 7 7 7 7 6 6 6 6 6 5 5 5 5 5 5 5 5 5 5 5 5 5 5 6 6
10 10 10 10 10 9 9 9 9 8 8 8 7 7 7 7 6 6 6 6 6 6 6 6 6 6 5 5 5 5 5 5 4 5 5 5 5 5 5 5 5 5 5
10 10 10 9 9 9 9 8 8 8 8 8 7 7 7 6 6 5 5 6 6 6 6 6 5 5 5 5 5 4 4 4 4 4 4 4 4 4 4 4 4 4 4
9 9 9 9 9 8 8 8 8 8 7 7 7 7 6 6 6 5 5 5 5 5 5 5 5 5 4 4 4 4 4 4 4 4 4 3 3 3 3 4 3 3 4
9 9 9 9 8 8 8 8 7 7 7 7 6 6 6 6 5 5 4 4 4 4 5 5 5 4 4 4 4 4 3 3 3 3 3 3 3 3 3 3 3 3 3
9 9 9 8 8 8 7 7 7 7 6 6 6 6 5 5 5 4 4 3 3 3 4 4 4 4 4 3 3 3 3 3 3 3 3 3 2 2 2 2 2 2 2
8 8 8 8 8 7 7 7 6 6 6 6 5 5 5 5 4 4 4 3 3 2 2 3 3 3 3 3 3 3 3 3 3 2 2 2 2 2 2 1 1 1 2
8 8 8 7 7 7 7 6 6 6 5 5 5 5 5 4 4 4 3 3 2 2 2 3 2 2 3 3 2 2 2 2 2 2 2 1 1 1 1 1 1 1 1
8 7 7 7 7 6 6 6 6 5 5 5 5 4 4 4 3 3 3 3 2 2 2 2 2 2 2 2 2 2 2 2 2 1 1 1 1 1 1 1 1 1 1
7 7 7 7 6 6 6 5 5 5 5 4 4 4 4 3 3 3 3 2 2 2 2 2 2 2 2 2 1 1 1 1 1 1 1 1 1 1 0 0 0 0 0
7 7 6 6 6 6 5 5 5 5 4 4 4 4 3 3 3 2 2 2 2 2 2 1 1 1 1 1 1 1 1 1 1 0 0 0 0 0 0 0 -0 -0 -0
6 6 6 6 5 5 5 5 4 4 4 4 3 3 3 2 2 2 2 2 2 1 1 1 1 1 1 1 1 0 1 1 0 0 0 -0 -0 -0 -0 -0 -0 -0 -1
6 5 5 5 5 5 5 4 4 4 4 3 3 3 2 2 2 2 1 1 1 1 1 1 0 1 0 0 -0 -0 -1 -0 -0 -0 -0 -0 -0 -0 -0 -0 -0 -1 -1
5 5 5 5 4 4 4 4 4 3 3 3 3 2 2 2 2 1 1 1 1 1 0 -0 -0 -0 -0 -0 -1 -1 -1 -2 -2 -1 -1 -1 -1 -1 -1 -1 -1 -1 -1
4 4 4 4 4 4 4 3 3 3 3 3 2 2 2 1 1 1 1 1 1 0 -0 -0 -1 -1 -1 -1 -1 -1 -2 -2 -2 -2 -2 -1 -1 -1 -1 -1 -1 -1 -1
4 4 4 4 3 3 3 3 3 2 2 2 2 1 1 1 1 0 0 0 0 0 -0 -0 -1 -1 -1 -1 -2 -2 -2 -2 -2 -2 -2 -2 -2 -1 -1 -1 -1 -1 -1
3 3 3 3 3 3 2 2 2 2 2 2 1 1 1 0 0 -0 -0 -0 -0 -0 -0 -1 -1 -1 -1 -1 -2 -2 -2 -2 -3 -2 -3 -3 -2 -2 -1 -1 -1 -1 -2
3 3 2 2 2 2 2 1 1 1 1 1 1 1 0 -0 -0 -0 -1 -1 -1 -1 -1 -1 -1 -1 -1 -1 -2 -2 -3 -3 -4 -3 -3 -3 -3 -3 -3 -1 -1 -2 -2
Wind_Speed
4 4 4 4 4 3 2 2 3 3 3 4 4 4 4 4 4 5 5 6 6 7 8 8 9 10 10 11 12 12 12 13 13 14 14 14 15 15 15 16 16 16 17
5 3 3 3 3 3 3 3 3 3 3 3 3 4 4 3 4 4 4 5 7 7 8 8 9 10 11 11 12 12 13 13 14 14 15 15 16 16 17 17 17 18 18
5 4 3 3 3 4 4 4 4 3 2 3 3 3 3 3 3 3 3 4 5 6 7 9 9 10 11 11 12 13 13 14 15 15 16 16 16 17 17 18 18 19 19
6 5 3 2 4 4 3 2 2 2 2 2 2 2 2 2 2 2 3 4 3 4 5 8 9 10 11 11 12 13 14 15 15 16 16 17 17 18 18 18 19 19 20
6 5 3 3 4 3 2 2 2 2 2 2 2 1 1 1 1 1 2 3 3 4 4 6 8 10 11 12 12 13 14 15 16 17 18 18 18 19 19 19 20 20 21
6 5 4 3 3 2 2 2 2 3 2 1 2 2 1 1 0 1 1 2 2 3 5 5 6 8 10 12 13 14 15 16 17 18 19 19 20 20 20 21 21 21 22
6 5 3 3 2 2 1 2 2 2 2 2 2 2 2 2 0 1 1 1 1 3 5 5 5 6 7 10 13 15 16 18 19 19 20 21 21 22 22 22 22 22 22
5 5 4 2 2 2 2 2 2 2 2 2 2 2 2 3 3 3 1 1 2 2 4 6 6 6 6 7 10 14 16 18 20 21 21 22 22 23 23 23 23 23 24
6 4 4 3 2 2 1 1 2 2 1 1 2 2 1 2 4 3 2 2 2 3 3 5 6 7 8 7 9 12 15 18 20 21 22 23 24 24 24 24 24 24 24
5 5 4 3 2 2 2 1 2 1 2 0 2 2 0 1 1 3 4 3 3 4 4 5 5 7 8 8 10 13 16 19 21 22 23 24 24 25 25 25 25 25 25
5 5 4 3 2 2 2 2 1 1 1 1 0 1 1 1 1 2 5 5 5 4 4 4 3 5 7 9 10 13 18 20 21 22 23 24 25 25 25 25 25 25 25
3 4 4 3 2 2 2 1 1 1 0 1 0 0 0 1 2 2 4 6 7 6 6 4 3 3 6 9 12 17 19 20 21 23 24 24 25 24 24 24 24 24 25
3 4 3 3 2 2 2 1 1 0 0 0 0 0 1 1 2 2 3 5 6 6 4 3 3 4 7 10 13 18 18 20 22 23 23 24 24 23 24 24 24 24 25
4 4 3 3 3 2 2 1 1 0 0 0 1 1 1 2 1 2 2 3 5 5 4 5 4 3 7 12 15 18 16 19 21 22 23 23 23 23 23 23 24 24 25
4 5 4 3 3 3 2 2 1 0 0 0 0 1 1 1 2 2 1 2 2 5 7 5 4 6 10 12 15 15 15 19 22 22 22 22 23 23 23 24 24 24 24
5 5 4 4 3 3 2 2 1 1 0 0 1 1 1 2 2 2 2 2 2 4 6 6 7 8 10 12 16 15 16 20 20 21 22 22 22 23 24 23 23 24 24
6 6 5 4 4 3 2 2 1 1 0 0 1 1 2 2 2 3 2 3 3 3 7 8 6 7 9 10 11 13 15 14 15 20 21 21 22 23 23 23 23 23 24
5 5 5 4 4 3 2 2 1 1 1 0 0 1 2 3 3 3 3 3 4 4 5 9 8 7 8 9 10 10 12 14 14 18 20 21 22 22 23 22 23 24 24
5 5 5 4 4 3 2 1 1 1 1 0 0 1 2 2 3 3 4 4 4 5 5 7 8 7 7 8 10 10 10 9 13 16 18 19 21 22 22 23 23 23 24
5 5 4 4 3 3 2 2 1 1 0 0 0 1 1 2 3 4 4 4 5 5 6 6 7 8 7 8 8 9 11 9 10 12 14 17 19 21 22 23 23 23 23
5 4 4 4 3 3 2 2 1 1 0 0 0 1 1 2 4 4 4 4 5 5 6 6 7 8 8 9 9 8 10 11 9 6 8 10 12 11 14 18 20 21 22
4 4 4 4 3 2 2 2 2 1 1 0 1 2 2 2 5 7 8 8 7 6 6 6 7 8 9 9 8 9 9 11 9 5 9 11 9 9 11 11 19 22 22
4 4 4 4 3 2 3 2 2 1 1 0 0 1 2 3 4 4 6 8 9 10 9 7 7 8 9 9 9 9 9 10 10 9 9 9 7 9 11 14 21 21 22
4 4 4 3 3 2 2 2 2 2 1 1 1 1 1 2 4 4 4 5 6 6 8 7 6 7 8 8 7 8 9 10 9 7 6 7 8 9 11 11 17 19 21
4 3 4 3 3 2 2 2 3 1 1 1 1 2 2 2 5 6 4 5 7 7 9 11 12 12 13 13 11 7 8 8 9 7 4 5 7 9 8 6 10 18 20
4 3 3 3 3 2 2 3 3 1 1 2 2 2 3 4 5 6 4 4 6 7 7 8 9 10 9 10 12 7 6 7 8 6 5 6 7 7 6 5 6 10 13
Wind_Direction
95 96 87 78 67 63 50 21 31 31 28 26 24 27 36 39 57 68 57 41 28 19 13 8 5 3 0 357 353 351 348 346 344 341 337 332 327 324 319 313 312 310 309
93 91 87 74 63 49 30 27 40 33 34 34 31 27 31 31 50 70 75 48 32 20 13 8 4 1 359 355 352 351 349 345 343 340 337 333 330 325 320 317 313 309 306
97 93 88 77 60 49 33 30 39 35 38 31 27 26 23 24 31 52 65 67 46 26 15 6 359 355 354 351 349 349 347 344 341 338 335 332 330 326 323 319 315 313 309
104 94 89 82 69 55 41 39 35 31 25 17 12 356 13 20 21 47 57 65 56 32 17 3 355 351 348 348 348 348 346 343 340 337 333 331 328 326 323 320 319 316 311
109 101 93 90 80 63 49 35 30 30 28 12 355 343 353 356 357 45 58 67 48 29 15 0 351 348 345 344 345 345 343 341 339 335 333 330 328 325 322 320 317 315 313
114 105 102 95 82 75 51 46 39 24 34 360 348 355 308 279 343 57 30 43 34 3 350 344 345 345 341 342 342 342 340 338 335 333 331 329 326 323 321 319 317 315 313
119 112 106 100 84 91 77 62 59 41 25 16 24 352 318 288 294 26 20 5 356 345 339 332 331 329 330 335 337 335 334 333 332 330 329 328 326 324 321 319 317 315 313
125 123 110 114 101 93 72 61 64 51 26 28 37 15 349 336 335 307 295 306 321 339 329 327 322 320 324 328 328 329 329 329 328 328 327 326 324 323 322 320 318 317 315
128 119 115 110 108 107 113 88 84 76 65 353 37 71 59 293 314 301 292 290 306 316 313 317 318 324 324 327 326 326 326 327 326 325 326 325 324 322 320 319 319 317 316
132 129 122 118 120 116 115 112 82 80 101 31 354 23 195 227 313 309 308 304 307 303 304 313 315 318 320 327 322 322 325 325 325 324 324 324 323 322 320 320 319 317 316
137 135 129 123 125 124 123 107 86 78 102 123 50 336 328 326 273 275 299 312 317 300 301 297 300 309 319 322 318 322 324 323 324 324 323 322 321 321 320 321 320 319 318
149 140 139 135 130 127 129 129 124 124 108 71 20 14 341 328 308 304 296 308 309 304 300 293 293 304 319 322 325 326 323 323 323 323 322 321 321 322 323 322 322 320 318
159 164 154 154 146 134 132 119 135 132 130 110 247 311 313 291 297 301 297 303 306 302 297 297 291 316 328 331 324 323 322 322 322 322 321 321 321 323 323 323 322 321 320
164 159 158 154 142 132 130 120 141 154 87 76 1 328 308 302 315 309 295 308 314 307 303 296 308 315 334 327 322 324 323 324 324 324 323 324 323 324 324 324 324 323 321
154 154 156 147 146 142 141 137 150 169 106 128 271 292 301 307 318 312 303 294 292 304 306 299 319 320 326 324 324 325 323 322 323 322 322 324 324 325 325 324 324 323 322
147 150 149 147 145 141 141 146 153 144 117 260 276 318 326 327 325 318 302 294 280 281 291 298 307 312 319 322 323 324 320 323 322 321 323 324 325 326 326 324 324 323 323
149 153 151 149 149 146 143 147 156 136 153 286 339 332 327 328 330 323 321 314 304 294 291 301 305 314 319 321 321 320 321 319 319 321 324 327 328 327 326 326 326 326 325
145 145 142 143 146 144 144 148 169 148 171 199 311 342 331 338 330 327 327 316 307 299 296 303 309 317 318 318 319 320 324 323 320 322 327 329 328 328 329 329 329 328 326
140 138 138 142 145 150 147 147 148 143 166 192 334 321 318 329 323 323 323 317 312 313 304 302 307 314 317 324 326 324 323 322 324 326 327 328 328 329 330 329 329 328 328
139 140 141 142 145 143 133 132 116 103 115 89 16 312 316 319 310 312 316 314 319 318 317 313 312 318 319 324 327 328 329 329 325 324 326 327 327 328 327 327 328 328 329
135 133 132 129 127 134 133 124 124 121 115 62 353 344 340 336 330 326 322 318 319 315 318 319 318 321 324 332 331 327 326 324 319 318 325 323 322 321 323 324 326 329 332
126 124 126 121 114 113 109 110 96 128 122 104 11 354 335 333 338 338 331 331 327 318 316 315 316 318 319 323 323 325 325 327 322 324 326 317 318 319 319 321 327 332 335
123 119 117 113 110 110 112 108 65 77 119 129 90 334 330 337 343 326 331 336 330 325 319 311 306 310 314 318 320 322 323 320 309 310 319 309 313 315 319 323 329 335 338
129 126 122 117 111 110 105 94 66 58 72 51 9 323 316 328 327 332 332 330 320 318 316 314 303 305 311 315 313 310 309 312 304 305 317 308 312 315 318 317 329 338 340
126 127 126 124 121 118 88 71 63 67 49 17 3 359 348 323 322 339 340 324 322 322 326 327 326 325 325 327 331 330 329 330 325 318 326 318 313 319 312 310 329 339 340
126 124 122 123 122 118 85 62 53 77 38 5 358 348 340 333 333 341 335 322 322 322 326 329 329 329 328 328 333 329 323 323 322 316 326 332 317 329 322 307 322 331 334
Height
1531 1532 1533 1533 1534 1534 1534 1534 1534 1534 1534 1534 1534 1533 1533 1532 1532 1531 1531 1530 1529 1528 1527 1525 1524 1522 1520 1518 1517 1515 1513 1511 1510 1508 1506 1505 1503 1501 1499 1498 1496 1494 1493
1530 1531 1532 1532 1533 1533 1533 1533 1533 1533 1533 1533 1532 1532 1531 1531 1530 1530 1529 1528 1527 1526 1525 1523 1522 1520 1518 1516 1514 1512 1510 1508 1507 1505 1503 1501 1499 1497 1495 1493 1492 1490 1488
1529 1530 1530 1531 1531 1532 1532 1532 1532 1532 1532 1531 1531 1530 1530 1529 1529 1528 1527 1526 1525 1524 1523 1521 1519 1518 1516 1514 1512 1510 1508 1505 1503 1501 1499 1497 1495 1493 1491 1489 1487 1485 1483
1528 1528 1529 1530 1530 1531 1531 1531 1531 1530 1530 1530 1529 1529 1528 1528 1527 1527 1526 1525 1524 1523 1521 1519 1518 1516 1514 1511 1509 1507 1505 1502 1500 1498 1496 1493 1491 1489 1487 1485 1482 1480 1477
1526 1527 1528 1528 1529 1529 1529 1530 1529 1529 1528 1528 1528 1527 1527 1526 1526 1525 1525 1524 1523 1521 1519 1518 1516 1514 1511 1509 1507 1505 1502 1500 1497 1495 1492 1490 1487 1485 1482 1480 1477 1475 1472
1524 1525 1526 1527 1527 1528 1528 1528 1528 1528 1527 1526 1525 1525 1525 1525 1524 1524 1524 1523 1521 1520 1518 1516 1514 1512 1509 1507 1505 1502 1499 1497 1494 1491 1489 1486 1483 1481 1478 1475 1472 1469 1466
1523 1524 1524 1525 1526 1526 1526 1527 1526 1526 1526 1525 1524 1523 1523 1523 1523 1522 1522 1521 1519 1518 1516 1514 1512 1509 1507 1505 1502 1499 1497 1494 1491 1488 1485 1482 1479 1476 1473 1470 1467 1464 1461
1520 1522 1522 1523 1524 1524 1525 1525 1525 1525 1525 1524 1524 1522 1522 1522 1521 1521 1520 1518 1517 1516 1514 1512 1510 1507 1504 1502 1499 1497 1493 1490 1487 1484 1481 1478 1474 1471 1468 1464 1461 1458 1454
1518 1520 1521 1521 1522 1522 1523 1523 1523 1523 1523 1524 1524 1524 1523 1521 1519 1518 1517 1516 1515 1513 1511 1509 1507 1504 1502 1499 1496 1493 1490 1487 1484 1480 1477 1473 1470 1466 1462 1459 1455 1451 1448
1516 1518 1519 1519 1520 1521 1521 1521 1522 1522 1522 1522 1522 1523 1523 1521 1520 1516 1515 1514 1513 1511 1508 1506 1504 1501 1499 1496 1493 1490 1486 1483 1479 1476 1472 1468 1464 1461 1457 1453 1449 1445 1441
1514 1515 1517 1517 1518 1519 1519 1520 1520 1520 1520 1520 1520 1520 1520 1519 1518 1516 1512 1510 1509 1507 1505 1503 1501 1498 1496 1492 1489 1486 1482 1479 1475 1471 1467 1463 1459 1455 1451 1447 1443 1439 1435
1511 1513 1514 1515 1516 1517 1517 1518 1518 1518 1518 1518 1518 1518 1518 1517 1516 1514 1511 1507 1505 1503 1502 1500 1498 1495 1492 1489 1485 1482 1478 1475 1471 1467 1463 1458 1454 1449 1445 1441 1436 1432 1428
1508 1510 1512 1513 1514 1515 1515 1516 1516 1516 1516 1516 1516 1516 1515 1515 1514 1512 1510 1506 1502 1499 1498 1496 1495 1492 1489 1485 1481 1478 1474 1470 1466 1462 1458 1453 1449 1444 1440 1435 1430 1426 1422
1506 1507 1509 1510 1511 1512 1513 1514 1514 1514 1514 1514 1513 1513 1512 1512 1511 1509 1508 1505 1500 1496 1494 1493 1491 1488 1485 1481 1477 1473 1469 1466 1461 1457 1453 1448 1444 1439 1434 1429 1425 1420 1416
1503 1505 1506 1508 1509 1510 1510 1511 1511 1511 1511 1511 1511 1510 1510 1509 1508 1507 1505 1504 1502 1496 1490 1488 1487 1484 1481 1477 1473 1469 1465 1461 1457 1452 1448 1443 1439 1434 1429 1424 1420 1415 1410
1500 1502 1504 1505 1506 1507 1508 1508 1508 1508 1508 1508 1508 1507 1506 1506 1505 1504 1502 1501 1499 1496 1491 1486 1484 1481 1477 1474 1470 1466 1461 1457 1453 1448 1443 1439 1434 1429 1425 1420 1415 1410 1405
1497 1499 1501 1502 1503 1504 1505 1506 1506 1506 1506 1506 1505 1504 1503 1503 1502 1501 1499 1498 1496 1494 1489 1484 1482 1478 1474 1470 1466 1462 1457 1453 1448 1444 1439 1434 1430 1425 1420 1415 1411 1406 1401
1494 1496 1498 1499 1501 1502 1502 1503 1503 1503 1503 1503 1502 1502 1501 1500 1499 1498 1496 1494 1493 1490 1487 1481 1477 1474 1471 1467 1462 1458 1453 1449 1444 1440 1435 1431 1426 1421 1416 1411 1406 1401 1396
1492 1494 1495 1497 1498 1499 1500 1501 1501 1501 1501 1501 1500 1499 1498 1497 1496 1495 1493 1491 1489 1487 1484 1479 1475 1472 1468 1464 1459 1454 1450 1445 1441 1436 1431 1427 1422 1417 1412 1407 1402 1397 1391
1489 1491 1493 1494 1496 1497 1497 1498 1498 1498 1498 1498 1498 1497 1496 1495 1494 1492 1490 1489 1486 1483 1480 1477 1472 1468 1465 1461 1456 1450 1444 1440 1436 1432 1427 1423 1418 1413 1408 1403 1398 1393 1388
1487 1489 1490 1492 1493 1494 1495 1495 1496 1496 1496 1496 1495 1495 1494 1493 1492 1490 1488 1486 1483 1480 1477 1474 1470 1465 1461 1457 1453 1448 1443 1437 1432 1428 1423 1419 1414 1409 1404 1399 1394 1389 1384
1485 1486 1488 1489 1490 1492 1493 1493 1494 1494 1494 1493 1493 1492 1491 1490 1489 1487 1486 1484 1481 1478 1475 1471 1467 1464 1459 1456 1451 1447 1442 1435 1428 1426 1421 1415 1412 1406 1401 1396 1392 1387 1382
1482 1484 1486 1487 1488 1489 1490 1491 1491 1491 1491 1491 1490 1489 1488 1487 1486 1484 1483 1481 1479 1476 1474 1470 1466 1462 1458 1454 1450 1445 1440 1435 1430 1425 1419 1412 1409 1403 1399 1394 1390 1385 1380
1481 1482 1483 1485 1486 1487 1488 1489 1489 1489 1489 1488 1488 1487 1486 1485 1483 1481 1479 1477 1475 1473 1470 1467 1464 1460 1457 1453 1449 1445 1439 1434 1429 1424 1419 1411 1405 1401 1396 1392 1388 1383 1378
1479 1480 1482 1483 1484 1485 1486 1487 1487 1487 1486 1486 1485 1485 1483 1482 1481 1479 1477 1474 1472 1469 1467 1464 1461 1458 1454 1451 1447 1442 1437 1431 1425 1421 1418 1412 1405 1398 1393 1389 1386 1381 1376
1477 1479 1480 1481 1482 1483 1484 1484 1485 1484 1484 1483 1483 1482 1481 1480 1478 1476 1474 1471 1468 1466 1463 1460 1458 1455 1451 1448 1444 1441 1436 1431 1425 1420 1416 1411 1405 1399 1391 1387 1384 1380 1375